Weather History for Paynesville, MN

Change the Weather History Date:

Friday, August 30, 2013

  Actual Average (KLJF) Record (KLJF)
Temperature  
Mean Temperature 72 °F -  
Max Temperature 82 °F 79 °F 95 °F (1961)
Min Temperature 62 °F 56 °F 39 °F (1982)
Cooling Degree Days 7    
Growing Degree Days 22 (Base 50)    
Moisture  
Dew Point 64 °F    
Average Humidity 73    
Maximum Humidity 96    
Minimum Humidity 47    
Precipitation  
Precipitation 0.00 in - - ()
Sea Level Pressure  
Sea Level Pressure 29.93 in    
Wind  
Wind Speed 5 mph (NNE)    
Max Wind Speed 12 mph    
Max Gust Speed 17 mph    
Visibility 10 miles    
Events      
Averages and records for this station are not official NWS values.
T = Trace of Precipitation, MM = Missing Value Source: NWS Daily Summary

Daily Weather History Graph

Daily Weather History Graph

Search for Another Location

Airport:

Trip Planner

Search our weather history database for the weather conditions in past years. The results will help you decide how hot, cold, wet, or windy it might be!

Date:

Astronomy

Aug. 30, 2013 Rise Set
Actual Time 6:38 AM CDT 7:59 PM CDT
Civil Twilight 6:07 AM CDT 8:30 PM CDT
Nautical Twilight 5:30 AM CDT 9:07 PM CDT
Astronomical Twilight 4:51 AM CDT 9:46 PM CDT
Moon 1:08 AM CDT (8/30) 4:24 PM CDT (8/30)
Length of Visible Light 14h 22m
Length of Day
13h 21m
Waning Crescent, 29% of the Moon is Illuminated
Aug 30
Waning Crescent
Sep 5
New
Sep 12
First Quarter
Sep 19
Full
Sep 26
Last Quarter

Hourly Weather History & Observations

Time (CDT) Temp. Heat Index Dew Point Humidity Pressure Visibility Wind Dir Wind Speed Gust Speed Precip Events Conditions
12:13 AM 74.1 °F - 68.4 °F 82% 29.87 in 10.0 mi West 3.5 mph - N/A   Clear
12:32 AM 73.9 °F - 68.9 °F 84% 29.88 in 10.0 mi WNW 3.5 mph - N/A   Scattered Clouds
12:53 AM 76.1 °F - 69.8 °F 81% 29.88 in 10.0 mi NNW 5.8 mph - N/A   Scattered Clouds
1:13 AM 75.9 °F - 70.0 °F 82% 29.88 in 10.0 mi NNW 5.8 mph - N/A   Clear
1:32 AM 75.2 °F - 70.0 °F 84% 29.88 in 10.0 mi NW 4.6 mph - N/A   Clear
1:53 AM 74.5 °F - 69.6 °F 85% 29.88 in 10.0 mi NW 4.6 mph - N/A   Clear
2:13 AM 73.6 °F - 69.3 °F 86% 29.88 in 10.0 mi NW 4.6 mph - N/A   Clear
2:33 AM 73.0 °F - 68.9 °F 87% 29.89 in 10.0 mi NW 4.6 mph - N/A   Clear
2:52 AM 72.5 °F - 68.9 °F 88% 29.89 in 10.0 mi NW 3.5 mph - N/A   Clear
3:12 AM 71.6 °F - 68.4 °F 89% 29.89 in 10.0 mi WNW 4.6 mph - N/A   Clear
3:33 AM 70.9 °F - 68.0 °F 91% 29.89 in 10.0 mi NW 3.5 mph - N/A   Clear
3:53 AM 70.3 °F - 68.0 °F 92% 29.90 in 10.0 mi NW 3.5 mph - N/A   Clear
4:12 AM 69.8 °F - 68.0 °F 94% 29.90 in 10.0 mi Calm Calm - N/A   Clear
4:33 AM 69.3 °F - 67.5 °F 94% 29.90 in 10.0 mi NW 3.5 mph - N/A   Clear
4:53 AM 69.1 °F - 67.5 °F 95% 29.91 in 10.0 mi Calm Calm - N/A   Clear
5:13 AM 68.9 °F - 67.3 °F 95% 29.91 in 10.0 mi NNW 3.5 mph - N/A   Clear
5:33 AM 68.5 °F - 67.1 °F 95% 29.91 in 10.0 mi Calm Calm - N/A   Clear
5:53 AM 68.2 °F - 67.1 °F 96% 29.91 in 10.0 mi NNW 4.6 mph - N/A   Clear
6:12 AM 68.0 °F - 66.7 °F 96% 29.91 in 10.0 mi Calm Calm - N/A   Scattered Clouds
6:33 AM 68.7 °F - 67.3 °F 95% 29.92 in 10.0 mi North 6.9 mph - N/A   Overcast
6:53 AM 68.5 °F - 66.4 °F 93% 29.93 in 10.0 mi North 9.2 mph - N/A   Overcast
7:12 AM 68.7 °F - 66.2 °F 92% 29.94 in 10.0 mi North 8.1 mph - N/A   Overcast
7:33 AM 68.2 °F - 64.9 °F 89% 29.94 in 10.0 mi North 8.1 mph 16.1 mph N/A   Overcast
7:53 AM 68.0 °F - 64.4 °F 88% 29.94 in 10.0 mi North 10.4 mph - N/A   Overcast
8:13 AM 68.5 °F - 64.4 °F 87% 29.95 in 10.0 mi North 6.9 mph - N/A   Overcast
8:32 AM 68.9 °F - 64.4 °F 86% 29.95 in 10.0 mi North 6.9 mph - N/A   Overcast
8:53 AM 70.0 °F - 64.2 °F 82% 29.96 in 10.0 mi NNE 8.1 mph - N/A   Overcast
9:13 AM 70.0 °F - 63.0 °F 78% 29.97 in 10.0 mi NNE 4.6 mph - N/A   Mostly Cloudy
9:32 AM 70.3 °F - 63.0 °F 77% 29.97 in 10.0 mi NNE 8.1 mph - N/A   Clear
9:53 AM 71.4 °F - 62.4 °F 73% 29.98 in 10.0 mi NNE 11.5 mph 17.3 mph N/A   Scattered Clouds
10:12 AM 72.1 °F - 61.7 °F 70% 29.98 in 10.0 mi North 8.1 mph 16.1 mph N/A   Scattered Clouds
10:33 AM 73.9 °F - 61.0 °F 64% 29.98 in 10.0 mi NE 11.5 mph 17.3 mph N/A   Mostly Cloudy
10:52 AM 72.9 °F - 61.5 °F 67% 29.98 in 10.0 mi North 9.2 mph - N/A   Mostly Cloudy
11:13 AM 73.8 °F - 61.7 °F 66% 29.98 in 10.0 mi North 10.4 mph 16.1 mph N/A   Mostly Cloudy
11:32 AM 75.4 °F - 61.0 °F 61% 29.98 in 10.0 mi NE 11.5 mph - N/A   Scattered Clouds
11:52 AM 75.4 °F - 61.3 °F 62% 29.98 in 10.0 mi East 6.9 mph - N/A   Scattered Clouds
12:13 PM 77.0 °F - 61.2 °F 58% 29.98 in 10.0 mi ENE 8.1 mph - N/A   Clear
12:33 PM 77.4 °F - 61.7 °F 58% 29.97 in 10.0 mi NE 5.8 mph - N/A   Clear
12:52 PM 78.6 °F - 61.9 °F 56% 29.97 in 10.0 mi NNE 5.8 mph - N/A   Clear
1:13 PM 79.0 °F - 61.3 °F 55% 29.97 in 10.0 mi NNE 6.9 mph - N/A   Clear
1:33 PM 81.0 °F 81.8 °F 61.5 °F 51% 29.97 in 10.0 mi NNE 6.9 mph - N/A   Clear
1:52 PM 80.6 °F 81.6 °F 61.3 °F 52% 29.97 in 10.0 mi NNE 8.1 mph - N/A   Clear
2:12 PM 81.1 °F 82.0 °F 61.3 °F 51% 29.96 in 10.0 mi ENE 8.1 mph - N/A   Clear
2:33 PM 81.7 °F 82.3 °F 61.0 °F 49% 29.96 in 10.0 mi NE 6.9 mph - N/A   Clear
2:52 PM 81.7 °F 82.0 °F 59.9 °F 47% 29.96 in 10.0 mi ENE 5.8 mph - N/A   Clear
3:13 PM 81.5 °F 82.0 °F 60.3 °F 48% 29.96 in 10.0 mi ENE 4.6 mph - N/A   Clear
3:33 PM 81.9 °F 82.3 °F 60.3 °F 48% 29.96 in 10.0 mi NNE 8.1 mph - N/A   Clear
3:52 PM 81.9 °F 82.5 °F 60.8 °F 49% 29.95 in 10.0 mi ENE 9.2 mph - N/A   Clear
4:13 PM 82.4 °F 82.9 °F 60.6 °F 48% 29.94 in 10.0 mi ENE 5.8 mph - N/A   Clear
4:33 PM 82.4 °F 82.9 °F 60.8 °F 48% 29.94 in 10.0 mi NE 8.1 mph - N/A   Clear
4:52 PM 81.9 °F 82.3 °F 60.4 °F 48% 29.94 in 10.0 mi East 4.6 mph - N/A   Clear
5:13 PM 82.4 °F 82.9 °F 60.6 °F 48% 29.94 in 10.0 mi ENE 4.6 mph - N/A   Clear
5:33 PM 81.7 °F 82.3 °F 60.8 °F 49% 29.94 in 10.0 mi NNE 4.6 mph - N/A   Clear
5:52 PM 81.9 °F 82.3 °F 60.6 °F 48% 29.93 in 10.0 mi NNE 6.9 mph - N/A   Clear
6:13 PM 81.5 °F 82.1 °F 60.8 °F 49% 29.92 in 10.0 mi NNE 4.6 mph - N/A   Clear
6:32 PM 81.1 °F 81.9 °F 60.8 °F 50% 29.92 in 10.0 mi ENE 5.8 mph - N/A   Clear
6:52 PM 81.0 °F 81.8 °F 61.3 °F 51% 29.92 in 10.0 mi Calm Calm - N/A   Clear
7:13 PM 80.1 °F 81.1 °F 61.2 °F 52% 29.92 in 10.0 mi NE 3.5 mph - N/A   Clear
7:32 PM 78.8 °F - 62.1 °F 56% 29.91 in 10.0 mi Calm Calm - N/A   Clear
7:53 PM 77.5 °F - 62.6 °F 60% 29.91 in 10.0 mi Calm Calm - N/A   Clear
8:12 PM 74.1 °F - 62.6 °F 67% 29.91 in 10.0 mi Calm Calm - N/A   Clear
8:33 PM 74.7 °F - 62.8 °F 66% 29.91 in 10.0 mi Calm Calm - N/A   Clear
8:53 PM 73.9 °F - 62.8 °F 68% 29.91 in 10.0 mi Calm Calm - N/A   Clear
9:13 PM 68.7 °F - 62.8 °F 81% 29.91 in 10.0 mi Calm Calm - N/A   Clear
9:32 PM 66.9 °F - 62.6 °F 86% 29.91 in 10.0 mi Calm Calm - N/A   Clear
9:53 PM 65.5 °F - 60.8 °F 85% 29.91 in 10.0 mi Calm Calm - N/A   Clear
10:12 PM 64.8 °F - 60.8 °F 87% 29.91 in 10.0 mi Calm Calm - N/A   Clear
10:33 PM 64.4 °F - 61.0 °F 89% 29.91 in 10.0 mi Calm Calm - N/A   Clear
10:52 PM 63.5 °F - 59.7 °F 87% 29.92 in 10.0 mi Calm Calm - N/A   Clear
11:12 PM 63.7 °F - 59.7 °F 87% 29.92 in 10.0 mi Calm Calm - N/A   Clear
11:33 PM 62.6 °F - 59.2 °F 89% 29.91 in 10.0 mi Calm Calm - N/A   Clear
11:52 PM 62.8 °F - 60.1 °F 91% 29.91 in 10.0 mi Calm Calm - N/A   Clear